Lid_Strength_Index
5 4 4 3 4 2 2 3 2 2 1 2 2 2 2 2 1 1 1 1 1 1 2 3 3 2 3 3 3 3 3 3 3 4 4 3 2 3 2 2 2 1 1
6 6 4 4 4 3 2 2 2 2 2 2 2 2 2 2 2 1 2 2 1 1 1 2 2 2 2 3 3 3 4 4 4 5 4 5 4 3 2 2 2 2 2
7 6 5 4 4 3 3 2 2 2 2 1 2 5 4 4 3 3 3 2 0 0 1 1 2 2 2 3 3 3 4 4 4 3 3 6 7 6 4 3 3 3 3
7 7 6 5 6 3 2 2 2 2 2 3 3 4 3 4 3 3 2 1 1 1 1 1 2 2 3 3 3 3 4 4 4 3 2 3 4 6 7 4 3 3 3
7 8 7 5 4 4 3 2 2 3 3 3 3 2 3 3 2 2 2 2 2 1 1 2 3 2 2 3 3 3 3 2 3 3 4 4 4 4 6 7 5 4 3
7 7 7 6 5 3 3 2 2 2 2 2 2 2 3 3 3 3 3 3 3 2 2 2 2 2 2 2 2 3 3 3 4 4 4 4 5 5 5 6 6 5 4
6 6 6 6 6 4 5 3 3 3 2 2 2 2 2 2 3 3 3 3 3 3 3 2 2 2 2 2 2 2 2 3 3 3 4 4 4 4 4 5 6 5 5
6 5 5 5 6 5 3 5 4 3 2 2 2 2 2 2 2 2 2 2 2 2 2 2 2 1 1 2 2 2 3 3 3 4 4 4 4 3 4 4 5 6 6
6 5 5 5 4 5 4 5 4 3 3 2 2 2 2 2 2 2 2 2 2 2 2 2 2 1 2 2 2 2 3 3 4 3 3 4 4 3 3 3 4 5 7
5 5 5 6 6 6 5 4 4 4 2 2 2 2 2 2 2 2 2 3 3 2 2 2 2 2 2 2 3 3 3 3 3 3 3 3 3 3 2 2 3 4 5
6 5 5 6 5 4 4 4 4 4 3 3 2 2 2 2 2 2 2 2 2 3 2 2 2 2 2 2 3 3 3 3 3 3 3 3 3 2 3 2 3 3 4
6 5 6 6 7 4 4 4 5 5 3 2 2 2 2 2 2 2 2 3 3 2 1 1 2 2 2 3 3 3 2 2 3 3 3 3 2 3 3 2 3 3 4
6 6 6 7 7 4 4 4 4 4 3 2 3 3 2 2 2 3 3 3 2 2 2 2 2 2 2 3 3 2 2 3 3 3 3 3 3 3 3 2 2 2 3
6 6 7 7 7 4 4 4 5 3 3 3 3 3 3 3 3 3 3 2 2 2 3 3 2 2 2 2 1 2 2 3 3 2 3 3 3 2 2 2 2 2 3
6 7 6 5 5 5 4 4 3 3 3 3 3 4 3 4 4 4 4 3 2 2 3 3 2 2 2 2 2 2 2 3 3 3 3 3 2 2 3 2 2 2 3
6 5 5 5 5 5 4 4 4 3 3 3 3 3 3 3 4 4 5 5 4 4 4 3 3 3 3 8 5 3 3 3 4 4 4 3 3 3 5 4 3 2 3
6 6 6 5 5 4 4 4 3 3 3 3 3 3 3 3 3 4 3 4 4 4 4 4 4 4 5 10 9 7 3 3 4 4 4 3 1 3 2 5 6 5 5
7 6 6 5 4 3 3 3 3 3 3 3 3 3 3 3 3 3 3 3 3 3 3 4 4 5 7 10 9 6 3 4 3 4 3 3 2 2 2 2 2 3 3
7 6 6 5 3 3 3 3 3 5 3 3 3 3 3 3 3 3 3 3 2 2 2 3 5 6 6 10 9 5 3 4 4 3 3 3 2 9 8 2 3 4 4
7 6 6 5 4 3 3 3 4 4 4 3 3 3 3 3 3 3 3 2 2 2 2 4 5 6 5 10 10 6 3 4 3 3 4 9 4 10 9 3 3 4 4
7 6 6 6 5 3 3 4 4 4 3 2 3 3 2 3 2 3 2 3 2 2 3 4 5 5 5 7 11 9 3 3 3 3 4 5 10 11 10 7 2 4 4
7 6 6 5 5 3 3 4 4 3 3 3 2 2 3 2 2 2 3 2 3 3 4 3 3 5 5 9 11 10 7 5 3 3 4 6 11 11 10 7 10 9 5
7 6 6 5 4 3 3 4 3 3 2 3 3 3 2 2 2 3 3 3 3 3 3 3 3 4 5 6 11 12 10 8 4 3 7 12 12 11 10 11 9 7 2
7 6 5 5 4 3 3 3 2 2 3 3 3 3 3 3 3 2 2 3 3 4 3 3 3 3 4 5 5 6 7 9 7 9 8 8 8 8 8 6 4 2 2
7 6 5 5 4 3 3 2 2 2 3 3 3 3 3 4 6 8 6 3 4 4 3 4 3 3 4 5 6 6 4 4 7 6 4 4 4 4 3 3 2 2 2
6 6 4 4 4 3 3 2 2 2 3 3 3 3 4 5 6 6 8 14 13 12 11 8 4 4 7 10 10 11 11 11 11 4 4 4 3 3 3 3 3 3 3